ドゥ・トイト-ニェウイミン-デルポルト彗星

57P/du Toit-Neujmin-Delporte (2021)

English version
Home page
Updated on November 6, 2022

---------------------------------------------------------------------

・ プロフィール

・ 写真集

・ 軌道要素

Epoch 2022 Aug. 9.0 TT = JDT 2459800.5
T 2021 Oct. 17.29469 TT                                 Rudenko
q   1.7194275            (2000.0)            P               Q
n   0.15411234     Peri.  115.19061     +0.55848230     +0.82948173
a   3.4454381      Node   188.77210     -0.77785530     +0.52050089
e   0.5009553      Incl.    2.85221     -0.28816429     +0.20258057
P   6.40
>From 1279 observations 2015 Feb. 18-2022 Nov. 3, mean residual 0".9.

・ 星図

・ 光度変化

        m1 = 10.0 + 5 logΔ + 22.0 log r  [  ,-1]  (              〜2021年10月16日)
        m1 =  5.0 + 5 logΔ + 22.0 log r  [-1,  ]  (2021年10月16日〜              )

---------------------------------------------------------------------

軌道要素はM.P.E.C. 2022-V95に掲載されたものです。
星図はステラナビゲータ Ver.10 (アストロアーツ) で作成したものです。
光度グラフはComet for Windowsで作成したものです。

---------------------------------------------------------------------

Copyright(C) Seiichi Yoshida (comet@aerith.net). All rights reserved.